www.pogodaiklimat.ru

Погода и климат >> Архив погоды >> Япония >> Уэно


ПОГОДА в Уэно

  • Прогноз погоды в Уэно
  • Монитор погоды в Уэно

АРХИВ ПОГОДЫ в Уэно

Время (UTC), дата Ветер
(напр.,м/с)
 
Видим.   Явления Облачность Т
(С)
Тd
(С)
f
(%)
Тe
(С)
Тes
(С)
Комфортность P
(гПа)
Po
(гПа)
Тmin
(С)
Tmax
(С)
R
(мм)
R24
(мм)
S
(см)
13 18.06 Ю 2 20 км н/о +19.6 +16.1 80 +22 +22 комфорт 1011.6 992.9
14 18.06 Ю 2 20 км н/о +18.8 +15.7 82 +21 +21 комфорт 1011.3 992.6
15 18.06 ЮВ 1 20 км н/о +18.5 +15.6 83 +21 +21 комфорт 1011.1 992.4
16 18.06 ЮВ 1 20 км н/о +17.4 +15.6 89 +19 +19 1010.7 991.9
17 18.06 Ю 1 20 км н/о +17.4 +15.4 88 +19 +19 1010.4 991.6
18 18.06 СВ 1 20 км н/о +17.0 +15.5 91 +18 +18 1010.3 991.5
19 18.06 ЮВ 1 20 км н/о +16.2 +14.9 92 +17 +17 1009.9 991.0
20 18.06 С 1 19 км н/о +16.3 +15.2 93 +18 +18 1010.0 991.1
21 18.06 В 1 20 км н/о +17.1 +15.3 89 +18 +18 1010.0 991.2
22 18.06 Ю 1 20 км н/о +18.2 +15.3 83 +20 +20 1010.0 991.3
23 18.06 ЮВ 1 20 км н/о +20.1 +16.2 78 +24 +24 комфорт 1009.5 990.9
00 19.06 С 1 20 км н/о +23.5 +16.6 65 +27 +27 душно 1008.7 990.4 +16.0
01 19.06 СВ 1 20 км н/о +24.1 +15.9 60 +27 +27 жарко 1007.9 989.6
02 19.06 СВ 2 20 км н/о +25.4 +15.4 54 +28 +28 жарко 1007.4 989.2
03 19.06 СЗ 2 20 км н/о +27.1 +14.2 45 +29 +29 жарко 1006.2 988.2
04 19.06 С 2 19 км н/о +26.7 +15.1 49 +29 +29 жарко 1005.7 987.6
05 19.06 З 3 20 км н/о +27.6 +14.3 44 +30 +30 жарко 1005.0 987.0
06 19.06 ЮЗ 2 19 км н/о +28.6 +15.9 46 +32 +32 душно 1004.4 986.5
07 19.06 СВ 3 17 км н/о +29.0 +14.8 42 +31 +31 жарко 1003.8 985.9
08 19.06 С 2 18 км н/о +28.3 +15.6 46 +31 +31 душно 1003.3 985.4
09 19.06 ЮВ 3 20 км н/о +26.7 +16.6 54 +30 +30 душно 1003.7 985.7
10 19.06 В 2 20 км н/о +25.6 +16.2 56 +29 +29 душно 1004.1 986.0
11 19.06 В 1 20 км н/о +25.0 +16.4 59 +28 +28 жарко 1004.7 986.5
12 19.06 С 2 15 км н/о +23.9 +17.4 67 +28 +28 душно 1005.3 987.1 +29.2
13 19.06 ЮВ 2 20 км н/о +22.9 +17.6 72 +28 +28 душно 1005.7 987.4
14 19.06 ЮВ 2 16 км н/о +21.3 +17.5 79 +25 +25 комфорт 1005.5 987.1
15 19.06 ЮВ 1 13 км н/о +20.9 +17.3 80 +26 +26 душно 1005.3 986.9
16 19.06 штиль 0 12 км н/о +19.9 +17.3 85 +22 +22 комфорт 1005.3 986.8
17 19.06 ЮВ 2 10 км н/о +19.6 +17.2 86 +23 +23 комфорт 1005.1 986.6
18 19.06 Ю 1 9000 м дымка н/о +19.2 +17.2 88 +23 +23 комфорт 1005.4 986.8
19 19.06 Ю 1 8000 м дымка н/о +18.8 +17.0 89 +21 +21 комфорт 1005.5 986.9
20 19.06 ЮВ 1 7000 м дымка н/о +18.5 +16.8 90 +21 +21 комфорт 1005.8 987.2
21 19.06 Ю 1 7000 м дымка н/о +18.7 +16.7 88 +21 +21 комфорт 1006.3 987.7
22 19.06 ЮВ 1 9000 м дымка н/о +20.4 +17.6 84 +25 +25 комфорт 1006.3 987.8
23 19.06 С 2 10 км н/о +22.0 +17.4 75 +26 +26 душно 1006.3 987.9
00 20.06 ЮЗ 1 15 км н/о +24.1 +17.4 66 +28 +28 душно 1006.3 988.1 +18.3
01 20.06 СВ 2 15 км н/о +26.3 +17.4 58 +30 +30 душно 1005.9 987.8
02 20.06 СВ 3 16 км н/о +26.7 +17.2 56 +31 +31 душно 1005.9 987.8
03 20.06 СВ 2 18 км н/о +28.2 +16.8 50 +32 +32 душно 1005.4 987.4
04 20.06 СВ 3 18 км н/о +28.8 +16.7 48 +32 +32 душно 1004.9 987.0
05 20.06 С 3 20 км н/о +29.6 +16.4 45 +33 +33 душно 1004.4 986.5
06 20.06 С 2 20 км н/о +29.5 +15.6 43 +32 +32 душно 1004.1 986.2
07 20.06 С 4 20 км н/о +28.9 +16.8 48 +33 +33 очень
душно
1004.2 986.3
08 20.06 С 4 14 км н/о +28.4 +16.7 49 +32 +32 душно 1004.5 986.6
09 20.06 С 3 18 км н/о +27.3 +17.2 54 +31 +31 душно 1005.1 987.1
10 20.06 СВ 3 19 км н/о +26.1 +16.7 56 +30 +30 душно 1005.7 987.6
11 20.06 С 3 20 км н/о +25.0 +15.1 54 +28 +28 жарко 1006.8 988.6
12 20.06 СВ 3 20 км н/о +23.9 +15.4 59 +27 +27 жарко 1007.8 989.5 +30.3
13 20.06 СВ 2 20 км н/о +23.4 +15.0 59 +27 +27 душно 1008.4 990.1
15 20.06 СЗ 1 17 км н/о +21.1 +16.1 73 +24 +24 комфорт 1009.0 990.5
16 20.06 ЮВ 1 14 км н/о +20.4 +16.2 77 +25 +25 комфорт 1008.5 990.0
17 20.06 Ю 2 12 км н/о +19.4 +16.6 84 +22 +22 комфорт 1008.3 989.7
18 20.06 ЮВ 1 13 км н/о +19.3 +16.4 83 +23 +23 комфорт 1008.5 989.9
19 20.06 С 1 11 км н/о +19.2 +16.8 86 +22 +22 комфорт 1008.4 989.8
20 20.06 ЮВ 2 11 км н/о +18.6 +16.4 87 +20 +20 1008.9 990.2
21 20.06 штиль 0 12 км н/о +19.0 +16.4 85 +20 +20 1009.0 990.3
22 20.06 Ю 1 12 км н/о +20.7 +16.3 76 +25 +25 комфорт 1009.1 990.6
23 20.06 ЮЗ 1 14 км н/о +23.4 +16.9 67 +29 +29 душно 1008.6 990.3
00 21.06 СВ 2 12 км н/о +25.2 +17.4 62 +29 +29 душно 1008.1 989.9 +18.3
01 21.06 С 2 15 км н/о +27.7 +17.9 55 +32 +32 очень
душно
1007.7 989.7
02 21.06 СВ 3 17 км н/о +29.0 +17.5 50 +33 +33 очень
душно
1007.2 989.3
03 21.06 В 4 13 км н/о +28.9 +18.1 52 +34 +34 очень
душно
1006.9 989.0
04 21.06 ЮВ 4 15 км н/о +29.5 +17.4 48 +34 +34 очень
душно
1006.5 988.6
05 21.06 В 4 16 км н/о +29.5 +18.0 50 +34 +34 очень
душно
1005.8 987.9
06 21.06 Ю 4 5000 м слаб. дождь н/о +24.3 +20.4 79 +30 +30 очень
душно
1006.2 988.0 0.0
07 21.06 СЗ 3 7000 м слаб. дождь н/о +23.9 +20.6 82 +30 +30 очень
душно
1006.5 988.2
08 21.06 СВ 2 7000 м слаб. дождь н/о +24.2 +20.3 79 +30 +30 очень
душно
1006.3 988.1
09 21.06 З 3 5000 м слаб. дождь н/о +23.1 +20.4 85 +30 +30 очень
душно
1007.2 988.9
10 21.06 В 2 5000 м в посл. час дождь н/о +22.5 +20.6 89 +29 +29 очень
душно
1007.4 989.0
11 21.06 СВ 2 4400 м дымка н/о +22.4 +20.7 90 +29 +29 очень
душно
1007.4 989.0
12 21.06 СЗ 1 3800 м дымка {дождь} н/о +21.7 +20.7 94 +28 +28 душно 1007.6 989.2 +30.2 0.5
13 21.06 СВ 1 4600 м дымка н/о +21.3 +20.1 93 +26 +26 душно 1008.0 989.5
15 21.06 СВ 1 5000 м дымка н/о +20.4 +19.1 92 +26 +26 душно 1007.1 988.6
16 21.06 ЮЗ 1 4300 м дымка н/о +19.8 +19.0 95 +24 +24 комфорт 1006.4 987.9
17 21.06 СВ 1 1900 м дымка н/о +19.4 +19.3 99 +23 +23 комфорт 1006.1 987.5
18 21.06 СЗ 1 3900 м дымка н/о +19.3 +18.8 97 +23 +23 комфорт 1005.5 986.9
19 21.06 СЗ 1 3800 м дымка н/о +18.9 +18.6 98 +22 +22 комфорт 1005.5 986.9
20 21.06 СВ 1 5000 м дымка н/о +18.6 +18.1 97 +21 +21 комфорт 1005.2 986.6
21 21.06 В 2 13 км н/о +19.8 +18.1 90 +23 +23 комфорт 1005.1 986.6
22 21.06 З 1 20 км н/о +21.6 +18.2 81 +26 +26 душно 1004.9 986.5
23 21.06 С 2 20 км н/о +23.7 +19.2 76 +29 +29 душно 1004.5 986.3
00 22.06 СВ 3 20 км н/о +23.4 +18.3 73 +29 +29 душно 1004.4 986.1 +18.5
01 22.06 СВ 3 20 км в посл. час дождь н/о +24.1 +17.1 65 +28 +28 душно 1004.2 986.0
02 22.06 СВ 4 20 км н/о +26.0 +17.1 58 +30 +30 душно 1003.7 985.6
03 22.06 В 2 20 км {дождь} н/о +25.5 +16.9 59 +29 +29 душно 1003.1 985.0
04 22.06 В 2 20 км н/о +27.1 +15.5 49 +30 +30 душно 1002.1 984.1
05 22.06 СВ 2 20 км н/о +28.1 +13.6 41 +30 +30 жарко 1001.2 983.3
06 22.06 З 2 20 км {дождь} н/о +28.5 +15.4 45 +31 +31 душно 1000.7 982.8 0.0
07 22.06 С 5 20 км н/о +28.5 +15.8 46 +32 +32 душно 1000.7 982.8
08 22.06 С 8 18 км в посл. час дождь н/о +25.1 +16.3 58 +28 +28 жарко 1001.6 983.5
09 22.06 С 6 17 км {дождь} н/о +24.0 +16.5 63 +27 +27 жарко 1002.7 984.5
10 22.06 С 3 14 км н/о +22.9 +16.7 68 +28 +28 душно 1004.2 985.9
11 22.06 С 4 9000 м слаб. дождь н/о +22.1 +17.3 74 +27 +27 душно 1004.4 986.1
12 22.06 С 4 12 км в посл. час дождь н/о +21.9 +17.1 74 +26 +26 душно 1004.9 986.5 +29.8 0.0
13 22.06 С 4 15 км н/о +21.3 +16.9 76 +25 +25 комфорт 1005.0 986.6
14 22.06 С 4 17 км н/о +21.0 +16.8 77 +25 +25 комфорт 1005.2 986.8
15 22.06 С 3 19 км н/о +20.7 +16.5 77 +25 +25 комфорт 1005.1 986.6
16 22.06 С 3 20 км н/о +20.6 +16.0 75 +24 +24 комфорт 1005.1 986.6
17 22.06 С 3 20 км н/о +20.4 +15.8 75 +24 +24 комфорт 1005.0 986.5
18 22.06 С 2 20 км н/о +20.2 +15.6 75 +23 +23 комфорт 1004.9 986.4
19 22.06 С 2 20 км н/о +19.8 +15.5 76 +23 +23 комфорт 1005.2 986.7
20 22.06 С 2 20 км н/о +19.8 +15.5 76 +23 +23 комфорт 1005.4 986.9
21 22.06 СВ 2 20 км н/о +19.6 +15.9 79 +22 +22 комфорт 1005.6 987.1
22 22.06 СВ 4 20 км н/о +20.8 +15.4 71 +24 +24 комфорт 1005.6 987.1
23 22.06 С 4 20 км н/о +21.3 +15.2 68 +24 +24 комфорт 1005.5 987.1
00 23.06 С 3 20 км н/о +22.3 +15.7 66 +26 +26 жарко 1005.0 986.7 +19.4
01 23.06 С 3 20 км н/о +22.8 +15.7 64 +27 +27 душно 1004.8 986.5
02 23.06 СВ 4 20 км н/о +23.2 +15.8 63 +28 +28 душно 1004.7 986.4
03 23.06 С 4 20 км н/о +23.4 +15.0 59 +27 +27 душно 1004.5 986.2
04 23.06 С 4 20 км в посл. час дождь н/о +24.0 +15.0 57 +27 +27 жарко 1004.3 986.1
05 23.06 СВ 5 20 км н/о +24.7 +16.2 59 +28 +28 душно 1004.1 985.9
06 23.06 С 5 20 км {дождь} н/о +24.6 +15.8 58 +28 +28 душно 1004.1 985.9 0.0
07 23.06 С 5 20 км н/о +24.0 +14.7 56 +27 +27 жарко 1004.7 986.5
08 23.06 С 4 20 км н/о +23.5 +15.3 60 +26 +26 жарко 1005.3 987.0
09 23.06 С 4 20 км н/о +22.4 +14.5 61 +26 +26 жарко 1005.5 987.2
10 23.06 С 4 20 км н/о +21.6 +15.0 66 +25 +25 комфорт 1006.0 987.6
11 23.06 СВ 2 20 км н/о +21.0 +15.1 69 +25 +25 комфорт 1006.9 988.4
12 23.06 СВ 2 20 км н/о +20.6 +14.7 69 +24 +24 комфорт 1007.5 989.0 +25.3 0.0
13 23.06 С 2 20 км слаб. дождь н/о +20.4 +15.0 71 +24 +24 комфорт 1008.0 989.5
14 23.06 СВ 2 20 км слаб. дождь н/о +19.9 +15.1 74 +23 +23 комфорт 1007.7 989.1
15 23.06 В 2 9000 м слаб. дождь н/о +19.1 +16.0 82 +21 +21 комфорт 1007.0 988.4
16 23.06 СВ 2 20 км в посл. час дождь н/о +18.5 +16.3 87 +20 +20 1006.5 987.9
17 23.06 С 2 20 км н/о +18.8 +15.5 81 +20 +20 1006.5 987.9
18 23.06 ЮЗ 1 20 км {дождь} н/о +17.9 +15.7 87 +19 +19 1006.9 988.2 0.5
19 23.06 ЮЗ 2 18 км н/о +17.5 +16.2 92 +18 +18 1007.4 988.7
20 23.06 Ю 1 19 км н/о +17.8 +16.2 90 +19 +19 1007.9 989.2
21 23.06 Ю 1 19 км н/о +18.1 +16.3 89 +19 +19 1008.8 990.1
22 23.06 ЮЗ 2 20 км н/о +19.3 +16.2 82 +22 +22 комфорт 1009.3 990.7
23 23.06 З 1 20 км н/о +20.6 +14.7 69 +24 +24 комфорт 1009.9 991.3
00 24.06 СВ 2 20 км н/о +22.5 +14.9 62 +26 +26 жарко 1009.9 991.5 +17.3 0.5
01 24.06 З 2 20 км н/о +22.9 +14.2 58 +26 +26 жарко 1010.0 991.6
02 24.06 ЮВ 1 20 км н/о +24.4 +15.1 56 +27 +27 жарко 1009.7 991.4
03 24.06 З 2 20 км н/о +25.2 +13.4 48 +27 +27 жарко 1009.4 991.2
04 24.06 З 3 20 км н/о +26.4 +12.8 43 +28 +28 жарко 1009.2 991.1
05 24.06 З 4 20 км н/о +28.3 +13.0 39 +30 +30 жарко 1009.1 991.1
06 24.06 З 5 20 км н/о +28.2 +12.1 37 +29 +29 жарко 1009.0 991.0
07 24.06 СВ 6 20 км н/о +27.2 +13.9 44 +29 +29 жарко 1009.4 991.3
08 24.06 СВ 6 20 км н/о +25.5 +13.7 48 +28 +28 жарко 1010.1 991.9
09 24.06 С 6 20 км н/о +23.4 +13.9 55 +27 +27 душно 1011.4 993.0
10 24.06 С 5 20 км н/о +22.3 +14.2 60 +26 +26 жарко 1012.6 994.1
11 24.06 С 4 20 км н/о +21.5 +14.7 65 +25 +25 комфорт 1013.6 995.0
12 24.06 С 3 20 км н/о +20.7 +14.8 69 +24 +24 комфорт 1014.7 996.1 +29.1
13 24.06 С 3 20 км н/о +19.9 +14.9 73 +22 +22 комфорт 1015.1 996.4
14 24.06 С 3 20 км н/о +19.8 +15.3 75 +22 +22 комфорт 1015.5 996.8
15 24.06 С 1 20 км н/о +19.1 +15.2 78 +22 +22 комфорт 1015.7 996.9
16 24.06 ЮВ 1 20 км н/о +17.8 +15.3 85 +19 +19 1015.7 996.8
17 24.06 С 1 20 км н/о +17.5 +15.1 86 +19 +19 1016.0 997.1
19 24.06 ЮВ 1 20 км н/о +16.4 +14.8 90 +18 +18 1016.8 997.8
20 24.06 ЮВ 1 20 км н/о +15.9 +14.4 91 +17 +17 1017.3 998.3
21 24.06 ЮВ 1 20 км н/о +16.6 +14.4 87 +17 +17 1017.3 998.3
22 24.06 С 1 20 км н/о +18.2 +14.9 81 +20 +20 1017.5 998.6
23 24.06 СВ 2 20 км н/о +21.3 +14.9 67 +24 +24 комфорт 1017.5 998.9
00 25.06 СВ 3 20 км н/о +23.3 +15.1 60 +27 +27 душно 1017.0 998.5 +15.8
01 25.06 В 2 20 км н/о +25.3 +15.6 55 +28 +28 жарко 1016.7 998.4
02 25.06 ЮЗ 2 20 км н/о +25.7 +15.1 52 +29 +29 душно 1016.6 998.3
03 25.06 С 2 20 км н/о +26.6 +12.7 42 +28 +28 жарко 1016.0 997.8
04 25.06 Ю 2 20 км н/о +29.1 +10.7 32 +29 +29 жарко 1015.1 997.0
05 25.06 З 1 20 км н/о +29.8 +12.3 34 +31 +31 жарко 1014.3 996.3
06 25.06 ЮВ 4 20 км н/о +30.6 +13.8 36 +32 +32 жарко 1014.1 996.1
07 25.06 ЮВ 4 20 км н/о +29.8 +15.2 41 +32 +32 душно 1014.0 996.0
08 25.06 В 4 20 км н/о +28.1 +15.1 45 +31 +31 душно 1014.1 996.0
09 25.06 В 4 20 км н/о +27.3 +16.6 52 +31 +31 душно 1014.7 996.5
10 25.06 В 3 20 км н/о +25.3 +16.7 59 +29 +29 душно 1015.5 997.2
11 25.06 СВ 2 20 км н/о +24.5 +16.8 62 +28 +28 душно 1016.3 997.9
12 25.06 В 1 20 км н/о +23.8 +16.1 62 +27 +27 жарко 1017.3 998.8 +30.6
13 25.06 ЮВ 1 20 км н/о +22.7 +16.5 68 +27 +27 душно 1017.5 999.0

 

Местоположение метеостанции Уэно (Япония): широта 34.77 долгота 136.15 высота над уровнем моря 161 м.

В архиве по умолчанию представлена погода в Уэно за последнюю неделю. Архивные данные за месяц целиком и за предыдущие месяцы, начиная с января 2011 года, Вы можете получить, выбрав интересующий диапазон дат из раскрывающегося списка и нажав кнопку "Ввод!".


*Определитесь, кто Вы:
робот инопланетянин человек

Внимание! Время в таблицах - всемирное. Для получения местного времени необходимо прибавить поправку, которая равна 9 ч.

Смотрите также архив погоды в соседних городах и на ближайших метеорологических станциях:

Погода в Наре (Япония) (30 км)
Погода в Цу (Япония) (33 км)
Погода в Йоккаити (Япония) (43 км)
Погода в Киото (Япония) (47 км)
Погода в Хиконе (Япония) (57 км)
Погода в Осаке (Япония) (59 км)
Погода в Овасе (Япония) (78 км)
Погода в Нагоя (Япония) (86 км)
Погода в Кобе (Япония) (86 км)
Погода в Ирако (Япония) (88 км)

Пояснения к столбцам:

Ветер - указаны скорость ветра в м/с - средняя за 10 мин, порывы в срок и между сроками (в фигурных скобках) и направление, откуда дует ветер: С - северный, СВ - северо-восточный, В - восточный, ЮВ - юго-восточный, Ю - южный, ЮЗ - юго-западный, З - западный, СЗ - северо-западный.
Видимость - горизонтальная дальность видимости в метрах или километрах. При видимости от 1 до 10 км при отсутствии осадков обычно наблюдается дымка, при ухудшении видимости до 1 км и менее - туман. В сухую погоду видимость может ухудшаться дымом, пылью или мглою.
Явления - указаны атмосферные явления, наблюдавшиеся в срок или в последний час перед сроком; фигурными скобками обозначены явления, наблюдавшиеся между сроками (за 1-3 часа до срока); квадратными скобками обозначены град или гололедные отложения с указанием их диаметра в мм.
Облачность - указаны через наклонную черту общая и нижняя облачность в баллах и высота нижней границы облаков в метрах; квадратными скобками обозначены формы облаков: Ci - перистые, Cs - перисто-слоистые, Cc - перисто-кучевые, Ac - высококучевые, As - высокослоистые, Sc - слоисто-кучевые, Ns - слоисто-дождевые, Cu - кучевые, Cb - кучево-дождевые. Подробнее классификацию облаков см. в Атласе облаков (PDF).
T - Температура воздуха - температура, измеренная на высоте 2 м над землей.
Td - Температура точки росы - температура, при понижении до которой содержащийся в воздухе водяной пар достигнет насыщения.
f - Относительная влажность воздуха - влажноcть воздуха, измеренная на высоте 2 м над землей.
Te - Эффективная температура - температура, которую ощущает одетый по сезону человек в тени. Характеристика душности погоды. При расчете учитывается влияние влажности воздуха и скорости ветра на теплоощущения человека.
Tes - Эффективная температура на солнце - температура, которую ощущает человек, с поправкой на солнечный нагрев. Характеристика знойности погоды. Зависит от высоты солнца над горизонтом, облачности и скорости ветра. Ночью, в пасмурную погоду, а также при ветре 12 м/с и более поправка равна нулю.
P - Атмосферное давление - приведенное к уровню моря атмосферное давление.
Po - Атмосферное давление - измеренное на уровне метеостанции атмосферное давление.
Tmin - Минимальная температура - минимум температуры воздуха на высоте 2 м над землей.
Tmax - Максимальная температура - максимум температуры воздуха на высоте 2 м над землей.
R - Количество осадков - Количество выпавших осадков за период времени, мм. При наведении курсора мыши на число - период времени, за который выпало указанное количество осадков.
R24 - Количество осадков - Количество выпавших осадков за 24 часа, мм.
S - Снежный покров - Высота снежного покрова, см. При наведении курсора мыши на число - состояние снежного покрова и степень покрытия местности в баллах.